CW9663 Weather Reports


Display with metric or nautical units.
time (UTC)temp
F
wind
direction
speed
MPH
gust
MPH
rain 1hr
in
rain 24hr
in
rain mn
in
humidity
%
barometer
mb
20181214234340 44 15 6.0 11.0 0.00 0.09 0.02 97 1020.0
20181214233848 44 344 8.0 10.0 0.00 0.09 0.02 97 1020.0
20181214233341 44 17 6.0 11.0 0.00 0.09 0.02 97 1020.0
20181214232849 44 32 6.0 11.0 0.00 0.09 0.02 97 1019.9
20181214232335 44 24 5.0 10.0 0.00 0.09 0.02 97 1019.7
20181214231840 44 342 6.0 10.0 0.00 0.09 0.02 97 1019.7
20181214231342 44 360 3.0 7.0 0.00 0.09 0.02 97 1019.8
20181214230837 44 22 5.0 7.0 0.00 0.09 0.02 97 1019.8
20181214230336 44 346 3.0 7.0 0.00 0.09 0.02 96 1019.8
20181214225844 44 14 5.0 7.0 0.00 0.09 0.02 96 1019.9
20181214225343 44 31 4.0 5.0 0.00 0.09 0.02 96 1019.7
20181214224845 44 21 3.0 4.0 0.00 0.09 0.02 96 1019.5
20181214224350 44 17 3.0 4.0 0.00 0.10 0.02 96 1019.3
20181214223848 44 17 3.0 4.0 0.00 0.10 0.02 96 1019.2
20181214223349 44 17 4.0 4.0 0.00 0.10 0.02 95 1019.0
20181214222843 44 9 1.0 4.0 0.00 0.10 0.02 96 1019.0
20181214222339 44 9 1.0 3.0 0.00 0.10 0.02 96 1019.2
20181214221844 44 349 0.0 0.0 0.00 0.10 0.02 95 1019.1
20181214221341 44 346 0.0 0.0 0.00 0.10 0.02 94 1019.1
20181214220854 45 346 0.0 4.0 0.00 0.10 0.02 95 1019.1
20181214220353 45 346 1.0 4.0 0.00 0.10 0.02 94 1019.1
20181214215840 45 22 3.0 4.0 0.00 0.10 0.02 94 1019.1
20181214215345 45 35 3.0 3.0 0.00 0.10 0.02 95 1019.1
20181214214836 45 35 1.0 3.0 0.00 0.10 0.02 94 1019.0
20181214214340 45 35 2.0 3.0 0.00 0.10 0.02 94 1018.9
20181214213847 45 34 2.0 3.0 0.00 0.10 0.02 94 1018.8
20181214213354 46 31 2.0 3.0 0.00 0.10 0.02 94 1019.1
20181214212844 46 29 2.0 3.0 0.00 0.10 0.02 94 1019.2
20181214212350 46 27 1.0 3.0 0.00 0.10 0.02 94 1019.2
20181214211831 46 27 2.0 5.0 0.00 0.10 0.02 94 1019.3
20181214211339 46 27 3.0 5.0 0.00 0.10 0.02 94 1019.3
20181214210853 46 5 4.0 6.0 0.00 0.10 0.02 94 1019.3
20181214210340 46 22 4.0 6.0 0.00 0.10 0.02 94 1019.3
20181214205850 46 22 4.0 5.0 0.00 0.10 0.02 94 1019.2
20181214205335 46 18 2.0 4.0 0.00 0.10 0.02 94 1019.1
20181214204847 46 51 1.0 4.0 0.00 0.10 0.02 94 1019.2
20181214204348 46 50 2.0 4.0 0.00 0.10 0.02 93 1019.2
20181214203846 46 57 1.0 3.0 0.00 0.10 0.02 93 1019.2
20181214203341 46 57 1.0 4.0 0.00 0.10 0.02 94 1019.2
20181214202842 46 74 3.0 5.0 0.00 0.10 0.02 93 1019.1
20181214202338 47 48 2.0 5.0 0.00 0.10 0.02 93 1019.2
20181214201849 47 46 3.0 6.0 0.00 0.10 0.02 93 1019.3
20181214201336 47 55 2.0 6.0 0.00 0.10 0.02 93 1019.0
20181214200847 47 49 2.0 4.0 0.00 0.10 0.02 93 1018.7
20181214200351 47 48 2.0 3.0 0.00 0.10 0.02 93 1018.7
20181214195853 47 35 3.0 3.0 0.00 0.10 0.02 93 1018.9
20181214195340 47 35 2.0 4.0 0.00 0.10 0.02 93 1019.0
20181214194843 47 35 2.0 4.0 0.00 0.10 0.02 93 1019.0
20181214194349 47 32 3.0 5.0 0.00 0.10 0.02 92 1018.9
20181214193850 47 32 4.0 5.0 0.00 0.10 0.02 92 1018.9
20181214193339 47 32 3.0 4.0 0.00 0.10 0.02 92 1018.8
20181214192837 47 33 2.0 4.0 0.00 0.10 0.02 92 1018.8
20181214192346 47 32 2.0 3.0 0.00 0.10 0.02 92 1018.9
20181214191841 47 32 3.0 4.0 0.00 0.10 0.02 92 1019.1
20181214191344 47 32 3.0 4.0 0.00 0.10 0.02 92 1019.2
20181214190835 47 330 2.0 3.0 0.00 0.10 0.02 92 1019.3
20181214190344 47 328 2.0 3.0 0.00 0.10 0.02 93 1019.3
20181214185835 47 328 1.0 3.0 0.00 0.10 0.02 93 1019.3
20181214185334 47 328 1.0 3.0 0.00 0.10 0.02 93 1019.4
20181214184844 47 328 2.0 4.0 0.00 0.10 0.02 93 1019.4
20181214184349 47 328 2.0 4.0 0.00 0.10 0.02 92 1019.4
20181214183838 47 339 2.0 4.0 0.00 0.10 0.02 92 1019.5
20181214183343 47 327 3.0 5.0 0.00 0.10 0.02 92 1019.6
20181214182839 47 327 3.0 5.0 0.00 0.10 0.02 92 1019.6
20181214182346 47 325 4.0 5.0 0.00 0.10 0.02 92 1019.6
20181214181842 47 338 3.0 5.0 0.00 0.10 0.02 92 1019.6
20181214181340 47 9 1.0 4.0 0.00 0.10 0.02 92 1019.4
20181214180841 47 163 2.0 3.0 0.00 0.10 0.02 92 1019.3
20181214180335 47 165 2.0 3.0 0.00 0.10 0.02 91 1019.3
20181214175843 47 165 2.0 3.0 0.00 0.10 0.02 91 1019.2
20181214175347 47 163 1.0 3.0 0.00 0.10 0.02 91 1019.4
20181214174841 48 163 1.0 3.0 0.00 0.10 0.02 92 1019.4
20181214174342 47 163 1.0 3.0 0.00 0.10 0.02 92 1019.4
20181214173838 47 161 2.0 3.0 0.00 0.10 0.02 92 1019.4
20181214173337 47 161 0.0 3.0 0.00 0.10 0.02 92 1019.4
20181214172844 47 160 2.0 3.0 0.00 0.10 0.02 92 1019.6
20181214172351 47 160 1.0 2.0 0.00 0.10 0.02 93 1019.7
20181214171845 47 160 1.0 4.0 0.00 0.10 0.02 93 1019.8
20181214171350 46 160 3.0 6.0 0.00 0.10 0.02 93 1020.0
20181214170844 46 158 5.0 6.0 0.00 0.10 0.02 94 1019.9
20181214170346 46 153 4.0 6.0 0.00 0.10 0.02 94 1019.9
20181214165836 46 141 5.0 6.0 0.00 0.10 0.02 94 1019.9
20181214165345 46 144 5.0 6.0 0.00 0.10 0.02 95 1020.1
20181214164842 45 137 4.0 5.0 0.00 0.10 0.02 95 1020.1
20181214164346 45 137 3.0 4.0 0.00 0.10 0.02 95 1020.3
20181214163847 45 137 3.0 6.0 0.00 0.10 0.02 95 1020.3
20181214163353 45 137 3.0 6.0 0.00 0.10 0.02 95 1020.2
20181214162841 45 140 4.0 5.0 0.00 0.10 0.02 95 1020.3
20181214162352 44 131 3.0 4.0 0.00 0.10 0.02 95 1020.2
20181214161844 44 132 3.0 4.0 0.00 0.10 0.02 95 1020.4
20181214161349 44 130 3.0 5.0 0.00 0.10 0.02 95 1020.5
20181214160844 44 129 4.0 5.0 0.00 0.10 0.02 96 1020.7
20181214160348 44 115 2.0 3.0 0.00 0.10 0.02 96 1020.7
20181214155835 44 113 2.0 3.0 0.00 0.10 0.02 97 1020.7
20181214155335 43 113 2.0 3.0 0.00 0.10 0.02 97 1020.6
20181214154853 43 113 2.0 3.0 0.00 0.10 0.02 97 1020.8
20181214154336 43 113 2.0 3.0 0.00 0.10 0.02 97 1020.8
20181214153841 43 113 2.0 3.0 0.00 0.10 0.02 98 1020.8
20181214153349 43 113 2.0 4.0 0.00 0.10 0.02 98 1020.9
20181214152847 43 112 2.0 4.0 0.00 0.10 0.02 98 1020.9
20181214152348 43 111 2.0 4.0 0.00 0.10 0.02 98 1020.9
20181214151852 42 111 3.0 4.0 0.00 0.10 0.02 98 1020.9
20181214151336 42 110 3.0 4.0 0.00 0.10 0.02 98 1020.9
20181214150837 42 110 3.0 4.0 0.00 0.10 0.02 98 1020.7
20181214150355 42 105 3.0 4.0 0.00 0.10 0.02 98 1020.7
20181214145836 42 102 3.0 4.0 0.00 0.10 0.02 98 1020.8
20181214145338 42 102 3.0 4.0 0.00 0.10 0.02 98 1020.8
20181214144848 42 99 0.0 0.0 0.00 0.10 0.02 98 1020.9
20181214144335 42 98 0.0 0.0 0.00 0.10 0.02 98 1020.9
20181214143835 41 98 0.0 0.0 0.00 0.10 0.02 98 1020.8
20181214143346 41 98 0.0 0.0 0.01 0.10 0.02 98 1020.7
20181214142845 41 98 0.0 0.0 0.01 0.10 0.02 98 1020.7
20181214142335 40 98 0.0 0.0 0.01 0.10 0.02 98 1020.7
20181214141848 40 98 0.0 0.0 0.01 0.10 0.02 98 1020.6
20181214141341 40 98 0.0 0.0 0.01 0.10 0.02 98 1020.7
20181214140839 40 98 0.0 0.0 0.01 0.10 0.02 98 1020.6
20181214140341 40 98 0.0 0.0 0.01 0.10 0.02 98 1020.6
20181214135844 39 98 0.0 0.0 0.01 0.10 0.02 98 1020.6
20181214135352 39 98 0.0 0.0 0.01 0.10 0.02 97 1020.6
20181214134838 39 98 0.0 0.0 0.01 0.10 0.02 98 1020.6
20181214134348 39 98 0.0 0.0 0.01 0.10 0.02 98 1020.6
20181214133834 39 98 0.0 0.0 0.01 0.10 0.02 97 1020.6
20181214133353 39 98 0.0 0.0 0.00 0.09 0.01 98 1020.5
20181214132842 38 98 0.0 0.0 0.00 0.09 0.01 97 1020.5
20181214132353 38 98 0.0 1.0 0.01 0.09 0.01 97 1020.6
20181214131841 38 98 0.0 1.0 0.01 0.09 0.01 97 1020.4
20181214131348 38 98 0.0 0.0 0.01 0.09 0.01 97 1020.3
20181214130836 39 98 0.0 0.0 0.01 0.09 0.01 97 1020.2
20181214130355 39 98 0.0 0.0 0.01 0.09 0.01 97 1020.2
20181214125843 38 98 0.0 0.0 0.01 0.09 0.01 97 1020.1
20181214125351 38 98 0.0 0.0 0.01 0.09 0.01 97 1020.1
20181214124837 38 98 0.0 0.0 0.01 0.09 0.01 97 1020.0
20181214124349 38 98 0.0 0.0 0.01 0.09 0.01 97 1020.0
20181214123849 39 98 0.0 0.0 0.01 0.09 0.01 97 1019.9
20181214123349 39 98 0.0 0.0 0.01 0.09 0.01 97 1019.9
20181214122849 40 98 0.0 3.0 0.01 0.09 0.01 97 1019.9
20181214122336 39 98 0.0 4.0 0.00 0.08 0.00 97 1019.8
20181214121842 39 98 3.0 4.0 0.00 0.08 0.00 97 1019.7
20181214121346 39 95 3.0 3.0 0.00 0.08 0.00 97 1019.6
20181214120913 39 94 0.0 0.0 0.00 0.08 0.00 97 1019.7
20181214120355 39 94 0.0 0.0 0.00 0.08 0.00 97 1019.7
20181214115837 39 94 0.0 0.0 0.00 0.08 0.00 97 1019.8
20181214115353 39 94 0.0 0.0 0.00 0.08 0.00 97 1019.6
20181214114836 38 94 0.0 0.0 0.00 0.08 0.00 97 1019.7
20181214114348 39 94 0.0 0.0 0.00 0.08 0.00 97 1019.6
20181214113836 39 94 0.0 0.0 0.00 0.08 0.00 97 1019.6
20181214113337 39 93 0.0 0.0 0.00 0.08 0.00 97 1019.5
20181214112844 39 94 0.0 1.0 0.00 0.08 0.00 97 1019.5
20181214112335 39 88 0.0 1.0 0.00 0.08 0.00 97 1019.3
20181214111840 38 84 0.0 0.0 0.00 0.08 0.00 97 1019.2
20181214111345 38 84 0.0 0.0 0.00 0.08 0.00 96 1019.3
20181214110853 38 84 0.0 0.0 0.00 0.08 0.00 97 1019.1
20181214110337 39 84 0.0 0.0 0.00 0.08 0.00 97 1019.0
20181214105842 39 84 0.0 0.0 0.00 0.08 0.00 97 1018.8
20181214105351 39 84 0.0 0.0 0.00 0.08 0.00 97 1018.7
20181214104837 39 84 0.0 0.0 0.00 0.08 0.00 97 1018.8
20181214104346 39 84 0.0 0.0 0.00 0.08 0.00 97 1018.7
20181214103854 39 84 0.0 0.0 0.00 0.08 0.00 97 1018.7
20181214103355 39 84 0.0 0.0 0.00 0.08 0.00 97 1018.6
20181214102839 39 84 0.0 0.0 0.00 0.08 0.00 97 1018.7
20181214102347 39 84 0.0 0.0 0.00 0.08 0.00 96 1018.7
20181214101848 39 84 0.0 0.0 0.00 0.08 0.00 97 1018.6
20181214101339 39 84 0.0 0.0 0.00 0.08 0.00 97 1018.6
20181214100845 39 84 0.0 0.0 0.00 0.08 0.00 96 1018.6
20181214100348 39 84 0.0 0.0 0.00 0.08 0.00 97 1018.5
20181214095835 40 84 0.0 0.0 0.00 0.08 0.00 97 1018.5
20181214095347 40 84 0.0 0.0 0.00 0.08 0.00 97 1018.4
20181214094849 40 84 0.0 0.0 0.00 0.08 0.00 97 1018.4
20181214094343 40 84 0.0 0.0 0.00 0.08 0.00 97 1018.4
20181214093848 40 84 0.0 0.0 0.00 0.08 0.00 97 1018.3
20181214093348 40 84 0.0 0.0 0.00 0.08 0.00 97 1018.4
20181214092853 39 84 0.0 0.0 0.00 0.08 0.00 97 1018.4
20181214092343 39 84 0.0 0.0 0.00 0.08 0.00 97 1018.3
20181214091845 39 80 0.0 0.0 0.00 0.08 0.00 97 1018.3
20181214091337 39 80 0.0 0.0 0.00 0.08 0.00 96 1018.4
20181214090844 40 80 0.0 0.0 0.00 0.08 0.00 97 1018.4
20181214090342 40 80 0.0 0.0 0.00 0.08 0.00 97 1018.3
20181214085849 40 80 0.0 0.0 0.00 0.08 0.00 97 1018.3
20181214085339 39 84 0.0 0.0 0.00 0.08 0.00 97 1018.4
20181214084844 39 84 0.0 0.0 0.00 0.08 0.00 97 1018.4
20181214084353 40 84 0.0 0.0 0.00 0.08 0.00 97 1018.4
20181214083845 40 84 0.0 0.0 0.00 0.08 0.00 97 1018.4
20181214083340 40 84 0.0 2.0 0.00 0.08 0.00 97 1018.4
20181214082849 39 107 0.0 2.0 0.00 0.08 0.00 97 1018.5
20181214082340 39 107 0.0 3.0 0.00 0.08 0.00 97 1018.5
20181214081844 39 107 0.0 4.0 0.00 0.08 0.00 97 1018.5
20181214081350 39 105 3.0 4.0 0.00 0.08 0.00 97 1018.5
20181214080842 39 110 3.0 4.0 0.00 0.08 0.00 97 1018.5
20181214080336 39 102 3.0 4.0 0.00 0.08 0.00 97 1018.7
20181214075843 38 101 0.0 0.0 0.00 0.08 0.00 97 1018.7
20181214075351 38 97 0.0 0.0 0.00 0.08 0.00 96 1018.7
20181214074835 39 87 0.0 0.0 0.00 0.08 0.00 97 1018.7
20181214074345 39 87 0.0 0.0 0.00 0.08 0.00 97 1018.7
20181214073853 39 87 0.0 0.0 0.00 0.08 0.00 96 1018.7
20181214073355 39 87 0.0 0.0 0.00 0.08 0.00 96 1018.6
20181214072839 39 88 0.0 0.0 0.00 0.08 0.00 96 1018.7
20181214072350 39 88 0.0 0.0 0.00 0.08 0.00 97 1018.6
20181214071852 40 87 0.0 0.0 0.00 0.08 0.00 97 1018.7
20181214071342 40 86 0.0 0.0 0.00 0.08 0.00 97 1018.6
20181214070850 40 104 0.0 1.0 0.00 0.08 0.00 97 1018.6
20181214070350 39 98 0.0 1.0 0.00 0.08 0.00 97 1018.5
20181214065841 39 96 0.0 0.0 0.00 0.08 0.00 96 1018.4
20181214065353 39 98 0.0 0.0 0.00 0.08 0.00 96 1018.4
20181214064837 39 98 0.0 0.0 0.00 0.08 0.00 96 1018.4
20181214064350 39 98 0.0 0.0 0.00 0.08 0.00 96 1018.3
20181214063840 39 98 0.0 0.0 0.00 0.08 0.00 96 1018.2
20181214063350 39 98 0.0 0.0 0.00 0.08 0.00 96 1018.2
20181214062835 40 98 0.0 0.0 0.00 0.08 0.00 96 1018.2
20181214062341 40 98 0.0 0.0 0.00 0.08 0.00 96 1018.2
20181214061841 40 98 0.0 3.0 0.00 0.08 0.00 96 1018.3
20181214061353 40 111 0.0 3.0 0.00 0.08 0.00 96 1018.3
20181214060839 40 99 2.0 3.0 0.00 0.08 0.00 96 1018.2
20181214060355 40 93 0.0 3.0 0.00 0.08 0.00 96 1018.3
20181214055838 40 109 0.0 3.0 0.00 0.08 0.00 96 1018.2
20181214055347 40 103 0.0 0.0 0.00 0.08 0.00 96 1018.2
20181214054846 40 103 0.0 0.0 0.00 0.08 0.00 96 1018.3
20181214054334 40 103 0.0 0.0 0.00 0.08 0.00 96 1018.3
20181214053843 40 103 0.0 0.0 0.00 0.08 0.00 96 1018.2
20181214053339 40 103 0.0 0.0 0.00 0.08 0.00 96 1018.3
20181214052843 41 103 0.0 0.0 0.00 0.08 0.00 96 1018.4
20181214052350 40 103 0.0 1.0 0.00 0.08 0.00 96 1018.3
20181214051834 40 103 0.0 1.0 0.00 0.08 0.00 96 1018.4
20181214051343 40 107 0.0 1.0 0.00 0.08 0.00 96 1018.4
20181214050843 41 101 0.0 5.0 0.00 0.08 0.00 96 1018.4
20181214050351 40 90 0.0 5.0 0.01 0.08 0.08 96 1018.4
20181214045836 40 109 4.0 6.0 0.01 0.08 0.08 96 1018.4
20181214045342 40 117 4.0 6.0 0.01 0.08 0.08 96 1018.3
20181214044845 40 115 3.0 6.0 0.01 0.08 0.08 96 1018.3
20181214044351 40 112 4.0 5.0 0.01 0.08 0.08 96 1018.3
20181214043834 40 112 4.0 6.0 0.01 0.08 0.08 96 1018.4
20181214043351 40 107 4.0 6.0 0.01 0.08 0.08 96 1018.4
20181214042852 40 115 4.0 6.0 0.01 0.08 0.08 96 1018.3
20181214042339 40 113 5.0 8.0 0.01 0.08 0.08 96 1018.3
20181214041836 40 108 6.0 8.0 0.01 0.08 0.08 96 1018.3
20181214041343 40 112 5.0 8.0 0.01 0.08 0.08 96 1018.4
20181214040846 40 134 5.0 7.0 0.01 0.08 0.08 96 1018.5
20181214040349 40 111 5.0 7.0 0.00 0.07 0.07 96 1018.5
20181214035849 40 117 5.0 9.0 0.00 0.07 0.07 96 1018.5
20181214035334 40 113 4.0 9.0 0.00 0.07 0.07 96 1018.3
20181214034840 40 113 6.0 9.0 0.00 0.07 0.07 96 1018.3
20181214034345 40 116 6.0 8.0 0.00 0.07 0.07 96 1018.3
20181214033845 40 106 5.0 8.0 0.00 0.07 0.07 96 1018.3
20181214033348 40 121 5.0 7.0 0.00 0.07 0.07 96 1018.3
20181214032845 40 116 5.0 7.0 0.00 0.07 0.07 96 1018.4
20181214032353 40 103 5.0 7.0 0.00 0.07 0.07 96 1018.4
20181214031843 40 115 5.0 10.0 0.00 0.07 0.07 96 1018.3
20181214031350 40 111 6.0 10.0 0.00 0.07 0.07 96 1018.2
20181214030847 40 111 6.0 9.0 0.00 0.07 0.07 96 1018.5
20181214030337 40 117 6.0 9.0 0.00 0.07 0.07 96 1018.5
20181214025836 41 111 6.0 10.0 0.00 0.07 0.07 96 1018.5
20181214025341 41 108 6.0 10.0 0.00 0.07 0.07 96 1018.5
20181214024853 41 105 6.0 10.0 0.00 0.07 0.07 96 1018.4
20181214024340 41 128 7.0 10.0 0.00 0.07 0.07 96 1018.2
20181214023837 41 109 7.0 11.0 0.00 0.07 0.07 96 1018.2
20181214023348 41 109 7.0 12.0 0.00 0.07 0.07 96 1018.3
20181214022842 41 95 7.0 12.0 0.00 0.07 0.07 96 1018.3
20181214022346 41 101 9.0 12.0 0.00 0.07 0.07 96 1018.3
20181214021837 41 100 9.0 12.0 0.00 0.07 0.07 96 1018.2
20181214021342 41 110 8.0 12.0 0.00 0.07 0.07 96 1018.5
20181214020840 41 98 6.0 10.0 0.00 0.07 0.07 96 1018.4
20181214020347 41 117 6.0 10.0 0.00 0.07 0.07 96 1018.6
20181214015844 41 94 7.0 11.0 0.00 0.07 0.07 96 1018.5
20181214015346 41 103 6.0 11.0 0.00 0.07 0.07 96 1018.5
20181214014839 41 94 7.0 10.0 0.00 0.07 0.07 96 1018.5
20181214014344 41 95 5.0 12.0 0.00 0.07 0.07 96 1018.6
20181214013849 41 98 6.0 12.0 0.01 0.07 0.07 96 1018.8
20181214013337 41 99 8.0 12.0 0.01 0.07 0.07 96 1018.7
20181214012847 41 113 8.0 13.0 0.01 0.07 0.07 96 1018.6
20181214012335 41 106 7.0 13.0 0.01 0.07 0.07 96 1018.6
20181214011848 41 103 9.0 12.0 0.02 0.07 0.07 96 1018.6
20181214011353 41 100 6.0 10.0 0.02 0.07 0.07 96 1018.6
20181214010852 41 114 5.0 10.0 0.03 0.07 0.07 96 1018.4
20181214010347 41 102 4.0 10.0 0.03 0.07 0.07 96 1018.5
20181214005847 41 103 5.0 10.0 0.04 0.07 0.07 96 1018.5
20181214005334 41 110 6.0 11.0 0.04 0.07 0.07 96 1018.4
20181214004852 41 84 7.0 13.0 0.04 0.07 0.07 96 1018.4
20181214004337 41 52 5.0 13.0 0.04 0.07 0.07 96 1018.5
20181214003840 41 89 5.0 12.0 0.04 0.06 0.06 96 1018.5
20181214003350 41 92 5.0 12.0 0.04 0.06 0.06 96 1018.6
20181214002836 41 73 6.0 11.0 0.04 0.06 0.06 96 1018.9
20181214002342 41 88 5.0 12.0 0.04 0.06 0.06 95 1019.1
20181214001849 41 95 7.0 12.0 0.03 0.05 0.05 95 1019.1
20181214001348 41 113 7.0 12.0 0.04 0.05 0.05 95 1019.1
20181214000848 41 98 7.0 12.0 0.03 0.04 0.04 95 1019.2
20181214000353 40 89 7.0 12.0 0.03 0.04 0.04 95 1019.2
20181213235853 40 95 7.0 11.0 0.02 0.03 0.03 95 1019.3
20181213235340 40 101 8.0 11.0 0.02 0.03 0.03 95 1019.3
20181213234834 40 94 8.0 11.0 0.02 0.03 0.03 95 1019.3